Year,Month,Day,Hour,Minute,Value (Times are PST for temperature in C)
2016,02,27,00,00,6.40
2016,02,27,00,01,6.40
2016,02,27,00,02,6.40
2016,02,27,00,03,6.40
2016,02,27,00,04,6.40
2016,02,27,00,05,6.40
2016,02,27,00,06,6.40
2016,02,27,00,07,6.40
2016,02,27,00,08,6.40
2016,02,27,00,09,6.30
2016,02,27,00,10,6.30
2016,02,27,00,11,6.30
2016,02,27,00,12,6.40
2016,02,27,00,13,6.40
2016,02,27,00,14,6.30
2016,02,27,00,15,6.40
2016,02,27,00,16,6.30
2016,02,27,00,17,6.30
2016,02,27,00,18,6.30
2016,02,27,00,19,6.30
2016,02,27,00,20,6.30
2016,02,27,00,21,6.30
2016,02,27,00,22,6.30
2016,02,27,00,23,6.30
2016,02,27,00,24,6.30
2016,02,27,00,25,6.30
2016,02,27,00,26,6.30
2016,02,27,00,27,6.30
2016,02,27,00,28,6.30
2016,02,27,00,29,6.30
2016,02,27,00,30,6.30
2016,02,27,00,31,6.30
2016,02,27,00,32,6.30
2016,02,27,00,33,6.30
2016,02,27,00,34,6.40
2016,02,27,00,35,6.30
2016,02,27,00,36,6.30
2016,02,27,00,37,6.30
2016,02,27,00,38,6.30
2016,02,27,00,39,6.30
2016,02,27,00,40,6.30
2016,02,27,00,41,6.30
2016,02,27,00,42,6.30
2016,02,27,00,43,6.30
2016,02,27,00,44,6.30
2016,02,27,00,45,6.30
2016,02,27,00,46,6.30
2016,02,27,00,47,6.30
2016,02,27,00,48,6.30
2016,02,27,00,49,6.20
2016,02,27,00,50,6.20
2016,02,27,00,51,6.20
2016,02,27,00,52,6.20
2016,02,27,00,53,6.20
2016,02,27,00,54,6.10
2016,02,27,00,55,6.10
2016,02,27,00,56,6.10
2016,02,27,00,57,6.10
2016,02,27,00,58,6.10
2016,02,27,00,59,6.00
2016,02,27,01,00,6.00
2016,02,27,01,01,6.00
2016,02,27,01,02,6.00
2016,02,27,01,03,5.90
2016,02,27,01,04,5.90
2016,02,27,01,05,5.90
2016,02,27,01,06,5.90
2016,02,27,01,07,5.90
2016,02,27,01,08,5.90
2016,02,27,01,09,5.90
2016,02,27,01,10,5.90
2016,02,27,01,11,5.90
2016,02,27,01,12,5.90
2016,02,27,01,13,5.90
2016,02,27,01,14,5.80
2016,02,27,01,15,5.90
2016,02,27,01,16,5.80
2016,02,27,01,17,5.80
2016,02,27,01,18,5.80
2016,02,27,01,19,5.80
2016,02,27,01,20,5.80
2016,02,27,01,21,5.80
2016,02,27,01,22,5.80
2016,02,27,01,23,5.80
2016,02,27,01,24,5.80
2016,02,27,01,25,5.80
2016,02,27,01,26,5.80
2016,02,27,01,27,5.80
2016,02,27,01,28,5.80
2016,02,27,01,29,5.80
2016,02,27,01,30,5.80
2016,02,27,01,31,5.80
2016,02,27,01,32,5.80
2016,02,27,01,33,5.80
2016,02,27,01,34,5.80
2016,02,27,01,35,5.80
2016,02,27,01,36,5.80
2016,02,27,01,37,5.80
2016,02,27,01,38,5.80
2016,02,27,01,39,5.80
2016,02,27,01,40,5.80
2016,02,27,01,41,5.80
2016,02,27,01,42,5.80
2016,02,27,01,43,5.80
2016,02,27,01,44,5.70
2016,02,27,01,45,5.70
2016,02,27,01,46,5.70
2016,02,27,01,47,5.70
2016,02,27,01,48,5.70
2016,02,27,01,49,5.70
2016,02,27,01,50,5.70
2016,02,27,01,51,5.70
2016,02,27,01,52,5.70
2016,02,27,01,53,5.70
2016,02,27,01,54,5.70
2016,02,27,01,55,5.70
2016,02,27,01,56,5.70
2016,02,27,01,57,5.70
2016,02,27,01,58,5.70
2016,02,27,01,59,5.70
2016,02,27,02,00,5.70
2016,02,27,02,01,5.70
2016,02,27,02,02,5.70
2016,02,27,02,03,5.70
2016,02,27,02,04,5.70
2016,02,27,02,05,5.70
2016,02,27,02,06,5.70
2016,02,27,02,07,5.70
2016,02,27,02,08,5.70
2016,02,27,02,09,5.70
2016,02,27,02,10,5.70
2016,02,27,02,11,5.60
2016,02,27,02,12,5.60
2016,02,27,02,13,5.60
2016,02,27,02,14,5.60
2016,02,27,02,15,5.60
2016,02,27,02,16,5.60
2016,02,27,02,17,5.60
2016,02,27,02,18,5.60
2016,02,27,02,19,5.60
2016,02,27,02,20,5.60
2016,02,27,02,21,5.60
2016,02,27,02,22,5.60
2016,02,27,02,23,5.50
2016,02,27,02,24,5.50
2016,02,27,02,25,5.50
2016,02,27,02,26,5.50
2016,02,27,02,27,5.50
2016,02,27,02,28,5.50
2016,02,27,02,29,5.50
2016,02,27,02,30,5.50
2016,02,27,02,31,5.50
2016,02,27,02,32,5.50
2016,02,27,02,33,5.50
2016,02,27,02,34,5.50
2016,02,27,02,35,5.50
2016,02,27,02,36,5.50
2016,02,27,02,37,5.50
2016,02,27,02,38,5.50
2016,02,27,02,39,5.50
2016,02,27,02,40,5.50
2016,02,27,02,41,5.50
2016,02,27,02,42,5.50
2016,02,27,02,43,5.50
2016,02,27,02,44,5.50
2016,02,27,02,45,5.50
2016,02,27,02,46,5.50
2016,02,27,02,47,5.50
2016,02,27,02,48,5.50
2016,02,27,02,49,5.50
2016,02,27,02,50,5.50
2016,02,27,02,51,5.50
2016,02,27,02,52,5.50
2016,02,27,02,53,5.50
2016,02,27,02,54,5.50
2016,02,27,02,55,5.50
2016,02,27,02,56,5.40
2016,02,27,02,57,5.40
2016,02,27,02,58,5.40
2016,02,27,02,59,5.40
2016,02,27,03,00,5.40
2016,02,27,03,01,5.40
2016,02,27,03,02,5.40
2016,02,27,03,03,5.40
2016,02,27,03,04,5.40
2016,02,27,03,05,5.40
2016,02,27,03,06,5.40
2016,02,27,03,07,5.40
2016,02,27,03,08,5.40
2016,02,27,03,09,5.40
2016,02,27,03,10,5.40
2016,02,27,03,11,5.40
2016,02,27,03,12,5.40
2016,02,27,03,13,5.40
2016,02,27,03,14,5.30
2016,02,27,03,15,5.30
2016,02,27,03,16,5.30
2016,02,27,03,17,5.30
2016,02,27,03,18,5.30
2016,02,27,03,19,5.30
2016,02,27,03,20,5.30
2016,02,27,03,21,5.30
2016,02,27,03,22,5.30
2016,02,27,03,23,5.30
2016,02,27,03,24,5.30
2016,02,27,03,25,5.30
2016,02,27,03,26,5.30
2016,02,27,03,27,5.30
2016,02,27,03,28,5.30
2016,02,27,03,29,5.30
2016,02,27,03,30,5.30
2016,02,27,03,31,5.30
2016,02,27,03,32,5.30
2016,02,27,03,33,5.30
2016,02,27,03,34,5.30
2016,02,27,03,35,5.30
2016,02,27,03,36,5.20
2016,02,27,03,37,5.20
2016,02,27,03,38,5.20
2016,02,27,03,39,5.20
2016,02,27,03,40,5.20
2016,02,27,03,41,5.20
2016,02,27,03,42,5.20
2016,02,27,03,43,5.20
2016,02,27,03,44,5.20
2016,02,27,03,45,5.20
2016,02,27,03,46,5.20
2016,02,27,03,47,5.20
2016,02,27,03,48,5.20
2016,02,27,03,49,5.20
2016,02,27,03,50,5.20
2016,02,27,03,51,5.20
2016,02,27,03,52,5.20
2016,02,27,03,53,5.20
2016,02,27,03,54,5.20
2016,02,27,03,55,5.20
2016,02,27,03,56,5.20
2016,02,27,03,57,5.20
2016,02,27,03,58,5.20
2016,02,27,03,59,5.10
2016,02,27,04,00,5.10
2016,02,27,04,01,5.10
2016,02,27,04,02,5.10
2016,02,27,04,03,5.10
2016,02,27,04,04,5.10
2016,02,27,04,05,5.10
2016,02,27,04,06,5.10
2016,02,27,04,07,5.00
2016,02,27,04,08,5.00
2016,02,27,04,09,5.00
2016,02,27,04,10,5.00
2016,02,27,04,11,5.00
2016,02,27,04,12,5.00
2016,02,27,04,13,5.00
2016,02,27,04,14,4.90
2016,02,27,04,15,4.90
2016,02,27,04,16,4.90
2016,02,27,04,17,4.90
2016,02,27,04,18,4.90
2016,02,27,04,19,4.90
2016,02,27,04,20,4.90
2016,02,27,04,21,4.90
2016,02,27,04,22,4.90
2016,02,27,04,23,4.90
2016,02,27,04,24,4.90
2016,02,27,04,25,4.90
2016,02,27,04,26,4.90
2016,02,27,04,27,4.90
2016,02,27,04,28,4.90
2016,02,27,04,29,4.90
2016,02,27,04,30,4.90
2016,02,27,04,31,4.90
2016,02,27,04,32,4.90
2016,02,27,04,33,4.90
2016,02,27,04,34,4.90
2016,02,27,04,35,4.90
2016,02,27,04,36,4.90
2016,02,27,04,37,4.90
2016,02,27,04,38,4.90
2016,02,27,04,39,4.80
2016,02,27,04,40,4.80
2016,02,27,04,41,4.80
2016,02,27,04,42,4.80
2016,02,27,04,43,4.80
2016,02,27,04,44,4.80
2016,02,27,04,45,4.80
2016,02,27,04,46,4.80
2016,02,27,04,47,4.80
2016,02,27,04,48,4.80
2016,02,27,04,49,4.80
2016,02,27,04,50,4.80
2016,02,27,04,51,4.80
2016,02,27,04,52,4.80
2016,02,27,04,53,4.80
2016,02,27,04,54,4.70
2016,02,27,04,55,4.70
2016,02,27,04,56,4.70
2016,02,27,04,57,4.70
2016,02,27,04,58,4.70
2016,02,27,04,59,4.70
2016,02,27,05,00,4.70
2016,02,27,05,01,4.70
2016,02,27,05,02,4.60
2016,02,27,05,03,4.60
2016,02,27,05,04,4.60
2016,02,27,05,05,4.60
2016,02,27,05,06,4.60
2016,02,27,05,07,4.60
2016,02,27,05,08,4.60
2016,02,27,05,09,4.60
2016,02,27,05,10,4.60
2016,02,27,05,11,4.50
2016,02,27,05,12,4.60
2016,02,27,05,13,4.60
2016,02,27,05,14,4.50
2016,02,27,05,15,4.50
2016,02,27,05,16,4.50
2016,02,27,05,17,4.50
2016,02,27,05,18,4.50
2016,02,27,05,19,4.50
2016,02,27,05,20,4.50
2016,02,27,05,21,4.50
2016,02,27,05,22,4.50
2016,02,27,05,23,4.50
2016,02,27,05,24,4.50
2016,02,27,05,25,4.40
2016,02,27,05,26,4.40
2016,02,27,05,27,4.40
2016,02,27,05,28,4.40
2016,02,27,05,29,4.40
2016,02,27,05,30,4.40
2016,02,27,05,31,4.40
2016,02,27,05,32,4.40
2016,02,27,05,33,4.40
2016,02,27,05,34,4.40
2016,02,27,05,35,4.40
2016,02,27,05,36,4.40
2016,02,27,05,37,4.40
2016,02,27,05,38,4.40
2016,02,27,05,39,4.40
2016,02,27,05,40,4.40
2016,02,27,05,41,4.40
2016,02,27,05,42,4.40
2016,02,27,05,43,4.40
2016,02,27,05,44,4.40
2016,02,27,05,45,4.40
2016,02,27,05,46,4.40
2016,02,27,05,47,4.40
2016,02,27,05,48,4.40
2016,02,27,05,49,4.40
2016,02,27,05,50,4.30
2016,02,27,05,51,4.30
2016,02,27,05,52,4.30
2016,02,27,05,53,4.30
2016,02,27,05,54,4.30
2016,02,27,05,55,4.30
2016,02,27,05,56,4.30
2016,02,27,05,57,4.30
2016,02,27,05,58,4.30
2016,02,27,05,59,4.30
2016,02,27,06,00,4.30
2016,02,27,06,01,4.30
2016,02,27,06,02,4.30
2016,02,27,06,03,4.30
2016,02,27,06,04,4.30
2016,02,27,06,05,4.30
2016,02,27,06,06,4.30
2016,02,27,06,07,4.30
2016,02,27,06,08,4.30
2016,02,27,06,09,4.30
2016,02,27,06,10,4.30
2016,02,27,06,11,4.30
2016,02,27,06,12,4.30
2016,02,27,06,13,4.30
2016,02,27,06,14,4.20
2016,02,27,06,15,4.20
2016,02,27,06,16,4.20
2016,02,27,06,17,4.20
2016,02,27,06,18,4.10
2016,02,27,06,19,4.10
2016,02,27,06,20,4.10
2016,02,27,06,21,4.10
2016,02,27,06,22,4.10
2016,02,27,06,23,4.10
2016,02,27,06,24,4.10
2016,02,27,06,25,4.00
2016,02,27,06,26,4.00
2016,02,27,06,27,4.00
2016,02,27,06,28,4.00
2016,02,27,06,29,4.00
2016,02,27,06,30,4.00
2016,02,27,06,31,4.00
2016,02,27,06,32,4.00
2016,02,27,06,33,4.00
2016,02,27,06,34,4.00
2016,02,27,06,35,3.90
2016,02,27,06,36,3.90
2016,02,27,06,37,3.90
2016,02,27,06,38,3.90
2016,02,27,06,39,3.90
2016,02,27,06,40,3.80
2016,02,27,06,41,3.80
2016,02,27,06,42,3.80
2016,02,27,06,43,3.80
2016,02,27,06,44,3.70
2016,02,27,06,45,3.70
2016,02,27,06,46,3.70
2016,02,27,06,47,3.70
2016,02,27,06,48,3.70
2016,02,27,06,49,3.70
2016,02,27,06,50,3.70
2016,02,27,06,51,3.70
2016,02,27,06,52,3.70
2016,02,27,06,53,3.70
2016,02,27,06,54,3.70
2016,02,27,06,55,3.70
2016,02,27,06,56,3.70
2016,02,27,06,57,3.70
2016,02,27,06,58,3.70
2016,02,27,06,59,3.60
2016,02,27,07,00,3.60
2016,02,27,07,01,3.60
2016,02,27,07,02,3.60
2016,02,27,07,03,3.60
2016,02,27,07,04,3.60
2016,02,27,07,05,3.70
2016,02,27,07,06,3.70
2016,02,27,07,07,3.70
2016,02,27,07,08,3.70
2016,02,27,07,09,3.70
2016,02,27,07,10,3.70
2016,02,27,07,11,3.70
2016,02,27,07,12,3.70
2016,02,27,07,13,3.70
2016,02,27,07,14,3.70
2016,02,27,07,15,3.60
2016,02,27,07,16,3.60
2016,02,27,07,17,3.60
2016,02,27,07,18,3.60
2016,02,27,07,19,3.60
2016,02,27,07,20,3.60
2016,02,27,07,21,3.60
2016,02,27,07,22,3.60
2016,02,27,07,23,3.60
2016,02,27,07,24,3.60
2016,02,27,07,25,3.60
2016,02,27,07,26,3.60
2016,02,27,07,27,3.60
2016,02,27,07,28,3.60
2016,02,27,07,29,3.60
2016,02,27,07,30,3.60
2016,02,27,07,31,3.60
2016,02,27,07,32,3.60
2016,02,27,07,33,3.60
2016,02,27,07,34,3.60
2016,02,27,07,35,3.60
2016,02,27,07,36,3.60
2016,02,27,07,37,3.60
2016,02,27,07,38,3.60
2016,02,27,07,39,3.60
2016,02,27,07,40,3.60
2016,02,27,07,41,3.60
2016,02,27,07,42,3.60
2016,02,27,07,43,3.60
2016,02,27,07,44,3.60
2016,02,27,07,45,3.60
2016,02,27,07,46,3.60
2016,02,27,07,47,3.60
2016,02,27,07,48,3.60
2016,02,27,07,49,3.60
2016,02,27,07,50,3.50
2016,02,27,07,51,3.50
2016,02,27,07,52,3.50
2016,02,27,07,53,3.40
2016,02,27,07,54,3.40
2016,02,27,07,55,3.40
2016,02,27,07,56,3.40
2016,02,27,07,57,3.40
2016,02,27,07,58,3.30
2016,02,27,07,59,3.30
2016,02,27,08,00,3.30
2016,02,27,08,01,3.30
2016,02,27,08,02,3.30
2016,02,27,08,03,3.30
2016,02,27,08,04,3.30
2016,02,27,08,05,3.30
2016,02,27,08,06,3.30
2016,02,27,08,07,3.30
2016,02,27,08,08,3.30
2016,02,27,08,09,3.30
2016,02,27,08,10,3.30
2016,02,27,08,11,3.30
2016,02,27,08,12,3.40
2016,02,27,08,13,3.40
2016,02,27,08,14,3.40
2016,02,27,08,15,3.40
2016,02,27,08,16,3.40
2016,02,27,08,17,3.50
2016,02,27,08,18,3.50
2016,02,27,08,19,3.50
2016,02,27,08,20,3.50
2016,02,27,08,21,3.50
2016,02,27,08,22,3.50
2016,02,27,08,23,3.50
2016,02,27,08,24,3.50
2016,02,27,08,25,3.40
2016,02,27,08,26,3.40
2016,02,27,08,27,3.40
2016,02,27,08,28,3.40
2016,02,27,08,29,3.40
2016,02,27,08,30,3.40
2016,02,27,08,31,3.40
2016,02,27,08,32,3.40
2016,02,27,08,33,3.40
2016,02,27,08,34,3.40
2016,02,27,08,35,3.50
2016,02,27,08,36,3.50
2016,02,27,08,37,3.50
2016,02,27,08,38,3.50
2016,02,27,08,39,3.50
2016,02,27,08,40,3.50
2016,02,27,08,41,3.50
2016,02,27,08,42,3.50
2016,02,27,08,43,3.50
2016,02,27,08,44,3.60
2016,02,27,08,45,3.60
2016,02,27,08,46,3.60
2016,02,27,08,47,3.60
2016,02,27,08,48,3.60
2016,02,27,08,49,3.70
2016,02,27,08,50,3.70
2016,02,27,08,51,3.70
2016,02,27,08,52,3.70
2016,02,27,08,53,3.70
2016,02,27,08,54,3.70
2016,02,27,08,55,3.80
2016,02,27,08,56,3.80
2016,02,27,08,57,3.80
2016,02,27,08,58,3.80
2016,02,27,08,59,3.80
2016,02,27,09,00,3.90
2016,02,27,09,01,3.90
2016,02,27,09,02,4.00
2016,02,27,09,03,4.00
2016,02,27,09,04,4.10
2016,02,27,09,05,4.10
2016,02,27,09,06,4.20
2016,02,27,09,07,4.20
2016,02,27,09,08,4.20
2016,02,27,09,09,4.30
2016,02,27,09,10,4.40
2016,02,27,09,11,4.40
2016,02,27,09,12,4.50
2016,02,27,09,13,4.50
2016,02,27,09,14,4.60
2016,02,27,09,15,4.60
2016,02,27,09,16,4.70
2016,02,27,09,17,4.70
2016,02,27,09,18,4.70
2016,02,27,09,19,4.70
2016,02,27,09,20,4.70
2016,02,27,09,21,4.70
2016,02,27,09,22,4.60
2016,02,27,09,23,4.60
2016,02,27,09,24,4.60
2016,02,27,09,25,4.50
2016,02,27,09,26,4.50
2016,02,27,09,27,4.50
2016,02,27,09,28,4.50
2016,02,27,09,29,4.50
2016,02,27,09,30,4.50
2016,02,27,09,31,4.50
2016,02,27,09,32,4.50
2016,02,27,09,33,4.50
2016,02,27,09,34,4.50
2016,02,27,09,35,4.50
2016,02,27,09,36,4.50
2016,02,27,09,37,4.50
2016,02,27,09,38,4.60
2016,02,27,09,39,4.60
2016,02,27,09,40,4.60
2016,02,27,09,41,4.60
2016,02,27,09,42,4.60
2016,02,27,09,43,4.70
2016,02,27,09,44,4.70
2016,02,27,09,45,4.70
2016,02,27,09,46,4.80
2016,02,27,09,47,4.80
2016,02,27,09,48,4.90
2016,02,27,09,49,4.90
2016,02,27,09,50,5.00
2016,02,27,09,51,5.00
2016,02,27,09,52,5.10
2016,02,27,09,53,5.10
2016,02,27,09,54,5.20
2016,02,27,09,55,5.20
2016,02,27,09,56,5.30
2016,02,27,09,57,5.30
2016,02,27,09,58,5.40
2016,02,27,09,59,5.40
2016,02,27,10,00,5.40
2016,02,27,10,01,5.50
2016,02,27,10,02,5.50
2016,02,27,10,03,5.50
2016,02,27,10,04,5.50
2016,02,27,10,05,5.40
2016,02,27,10,06,5.40
2016,02,27,10,07,5.40
2016,02,27,10,08,5.40
2016,02,27,10,09,5.40
2016,02,27,10,10,5.40
2016,02,27,10,11,5.40
2016,02,27,10,12,5.50
2016,02,27,10,13,5.50
2016,02,27,10,14,5.50
2016,02,27,10,15,5.50
2016,02,27,10,16,5.60
2016,02,27,10,17,5.60
2016,02,27,10,18,5.60
2016,02,27,10,19,5.60
2016,02,27,10,20,5.60
2016,02,27,10,21,5.60
2016,02,27,10,22,5.70
2016,02,27,10,23,5.70
2016,02,27,10,24,5.70
2016,02,27,10,25,5.70
2016,02,27,10,26,5.80
2016,02,27,10,27,5.80
2016,02,27,10,28,5.90
2016,02,27,10,29,5.90
2016,02,27,10,30,6.00
2016,02,27,10,31,6.00
2016,02,27,10,32,6.10
2016,02,27,10,33,6.20
2016,02,27,10,34,6.20
2016,02,27,10,35,6.30
2016,02,27,10,36,6.30
2016,02,27,10,37,6.40
2016,02,27,10,38,6.50
2016,02,27,10,39,6.50
2016,02,27,10,40,6.60
2016,02,27,10,41,6.70
2016,02,27,10,42,6.80
2016,02,27,10,43,6.90
2016,02,27,10,44,7.00
2016,02,27,10,45,7.10
2016,02,27,10,46,7.10
2016,02,27,10,47,7.20
2016,02,27,10,48,7.30
2016,02,27,10,49,7.30
2016,02,27,10,50,7.40
2016,02,27,10,51,7.40
2016,02,27,10,52,7.40
2016,02,27,10,53,7.40
2016,02,27,10,54,7.40
2016,02,27,10,55,7.30
2016,02,27,10,56,7.30
2016,02,27,10,57,7.40
2016,02,27,10,58,7.40
2016,02,27,10,59,7.40
2016,02,27,11,00,7.50
2016,02,27,11,01,7.50
2016,02,27,11,02,7.50
2016,02,27,11,03,7.50
2016,02,27,11,04,7.60
2016,02,27,11,05,7.60
2016,02,27,11,06,7.60
2016,02,27,11,07,7.60
2016,02,27,11,08,7.60
2016,02,27,11,09,7.60
2016,02,27,11,10,7.60
2016,02,27,11,11,7.60
2016,02,27,11,12,7.60
2016,02,27,11,13,7.70
2016,02,27,11,14,7.70
2016,02,27,11,15,7.80
2016,02,27,11,16,7.80
2016,02,27,11,17,7.90
2016,02,27,11,18,7.90
2016,02,27,11,19,8.00
2016,02,27,11,20,8.00
2016,02,27,11,21,7.90
2016,02,27,11,22,7.90
2016,02,27,11,23,7.90
2016,02,27,11,24,7.90
2016,02,27,11,25,7.90
2016,02,27,11,26,7.90
2016,02,27,11,27,8.00
2016,02,27,11,28,8.00
2016,02,27,11,29,8.10
2016,02,27,11,30,8.10
2016,02,27,11,31,8.10
2016,02,27,11,32,8.10
2016,02,27,11,33,8.10
2016,02,27,11,34,8.10
2016,02,27,11,35,8.10
2016,02,27,11,36,8.10
2016,02,27,11,37,8.10
2016,02,27,11,38,8.10
2016,02,27,11,39,8.10
2016,02,27,11,40,8.10
2016,02,27,11,41,8.10
2016,02,27,11,42,8.10
2016,02,27,11,43,8.20
2016,02,27,11,44,8.20
2016,02,27,11,45,8.30
2016,02,27,11,46,8.40
2016,02,27,11,47,8.40
2016,02,27,11,48,8.50
2016,02,27,11,49,8.60
2016,02,27,11,50,8.70
2016,02,27,11,51,8.80
2016,02,27,11,52,8.90
2016,02,27,11,53,8.90
2016,02,27,11,54,9.00
2016,02,27,11,55,9.00
2016,02,27,11,56,9.10
2016,02,27,11,57,9.20
2016,02,27,11,58,9.30
2016,02,27,11,59,9.30
2016,02,27,12,00,9.30
2016,02,27,12,01,9.40
2016,02,27,12,02,9.40
2016,02,27,12,03,9.40
2016,02,27,12,04,9.30
2016,02,27,12,05,9.30
2016,02,27,12,06,9.40
2016,02,27,12,07,9.40
2016,02,27,12,08,9.30
2016,02,27,12,09,9.20
2016,02,27,12,10,9.10
2016,02,27,12,11,9.10
2016,02,27,12,12,9.00
2016,02,27,12,13,9.00
2016,02,27,12,14,9.00
2016,02,27,12,15,9.10
2016,02,27,12,16,9.10
2016,02,27,12,17,9.10
2016,02,27,12,18,9.10
2016,02,27,12,19,9.20
2016,02,27,12,20,9.20
2016,02,27,12,21,9.20
2016,02,27,12,22,9.30
2016,02,27,12,23,9.30
2016,02,27,12,24,9.30
2016,02,27,12,25,9.30
2016,02,27,12,26,9.30
2016,02,27,12,27,9.40
2016,02,27,12,28,9.30
2016,02,27,12,29,9.30
2016,02,27,12,30,9.40
2016,02,27,12,31,9.40
2016,02,27,12,32,9.50
2016,02,27,12,33,9.50
2016,02,27,12,34,9.60
2016,02,27,12,35,9.60
2016,02,27,12,36,9.60
2016,02,27,12,37,9.60
2016,02,27,12,38,9.60
2016,02,27,12,39,9.60
2016,02,27,12,40,9.60
2016,02,27,12,41,9.60
2016,02,27,12,42,9.70
2016,02,27,12,43,9.80
2016,02,27,12,44,9.90
2016,02,27,12,45,10.00
2016,02,27,12,46,10.00
2016,02,27,12,47,10.10
2016,02,27,12,48,10.20
2016,02,27,12,49,10.20
2016,02,27,12,50,10.30
2016,02,27,12,51,10.40
2016,02,27,12,52,10.40
2016,02,27,12,53,10.50
2016,02,27,12,54,10.50
2016,02,27,12,55,10.50
2016,02,27,12,56,10.50
2016,02,27,12,57,10.40
2016,02,27,12,58,10.30
2016,02,27,12,59,10.30
2016,02,27,13,00,10.30
2016,02,27,13,01,10.30
2016,02,27,13,02,10.30
2016,02,27,13,03,10.40
2016,02,27,13,04,10.40
2016,02,27,13,05,10.40
2016,02,27,13,06,10.50
2016,02,27,13,07,10.60
2016,02,27,13,08,10.60
2016,02,27,13,09,10.70
2016,02,27,13,10,10.80
2016,02,27,13,11,10.80
2016,02,27,13,12,10.90
2016,02,27,13,13,11.00
2016,02,27,13,14,11.10
2016,02,27,13,15,11.10
2016,02,27,13,16,11.20
2016,02,27,13,17,11.20
2016,02,27,13,18,11.20
2016,02,27,13,19,11.20
2016,02,27,13,20,11.20
2016,02,27,13,21,11.20
2016,02,27,13,22,11.20
2016,02,27,13,23,11.10
2016,02,27,13,24,11.20
2016,02,27,13,25,11.20
2016,02,27,13,26,11.20
2016,02,27,13,27,11.20
2016,02,27,13,28,11.20
2016,02,27,13,29,11.20
2016,02,27,13,30,11.20
2016,02,27,13,31,11.20
2016,02,27,13,32,11.20
2016,02,27,13,33,11.30
2016,02,27,13,34,11.30
2016,02,27,13,35,11.30
2016,02,27,13,36,11.30
2016,02,27,13,37,11.30
2016,02,27,13,38,11.30
2016,02,27,13,39,11.30
2016,02,27,13,40,11.20
2016,02,27,13,41,11.30
2016,02,27,13,42,11.30
2016,02,27,13,43,11.30
2016,02,27,13,44,11.40
2016,02,27,13,45,11.40
2016,02,27,13,46,11.60
2016,02,27,13,47,11.70
2016,02,27,13,48,11.80
2016,02,27,13,49,11.90
2016,02,27,13,50,11.90
2016,02,27,13,51,12.00
2016,02,27,13,52,12.00
2016,02,27,13,53,12.00
2016,02,27,13,54,12.10
2016,02,27,13,55,12.10
2016,02,27,13,56,12.10
2016,02,27,13,57,12.20
2016,02,27,13,58,12.20
2016,02,27,13,59,12.10
2016,02,27,14,00,12.10
2016,02,27,14,01,12.10
2016,02,27,14,02,12.10
2016,02,27,14,03,12.10
2016,02,27,14,04,12.20
2016,02,27,14,05,12.20
2016,02,27,14,06,12.10
2016,02,27,14,07,12.10
2016,02,27,14,08,12.10
2016,02,27,14,09,12.10
2016,02,27,14,10,12.10
2016,02,27,14,11,12.20
2016,02,27,14,12,12.20
2016,02,27,14,13,12.30
2016,02,27,14,14,12.30
2016,02,27,14,15,12.40
2016,02,27,14,16,12.50
2016,02,27,14,17,12.60
2016,02,27,14,18,12.70
2016,02,27,14,19,12.70
2016,02,27,14,20,12.80
2016,02,27,14,21,12.80
2016,02,27,14,22,12.90
2016,02,27,14,23,12.90
2016,02,27,14,24,12.90
2016,02,27,14,25,13.00
2016,02,27,14,26,12.90
2016,02,27,14,27,12.90
2016,02,27,14,28,12.90
2016,02,27,14,29,12.90
2016,02,27,14,30,12.90
2016,02,27,14,31,12.80
2016,02,27,14,32,12.80
2016,02,27,14,33,12.70
2016,02,27,14,34,12.70
2016,02,27,14,35,12.60
2016,02,27,14,36,12.50
2016,02,27,14,37,12.50
2016,02,27,14,38,12.40
2016,02,27,14,39,12.40
2016,02,27,14,40,12.40
2016,02,27,14,41,12.30
2016,02,27,14,42,12.30
2016,02,27,14,43,12.30
2016,02,27,14,44,12.30
2016,02,27,14,45,12.30
2016,02,27,14,46,12.30
2016,02,27,14,47,12.20
2016,02,27,14,48,12.20
2016,02,27,14,49,12.20
2016,02,27,14,50,12.20
2016,02,27,14,51,12.20
2016,02,27,14,52,12.10
2016,02,27,14,53,12.10
2016,02,27,14,54,12.10
2016,02,27,14,55,12.10
2016,02,27,14,56,12.10
2016,02,27,14,57,12.20
2016,02,27,14,58,12.20
2016,02,27,14,59,12.20
2016,02,27,15,00,12.20
2016,02,27,15,01,12.20
2016,02,27,15,02,12.20
2016,02,27,15,03,12.20
2016,02,27,15,04,12.30
2016,02,27,15,05,12.30
2016,02,27,15,06,12.30
2016,02,27,15,07,12.30
2016,02,27,15,08,12.30
2016,02,27,15,09,12.30
2016,02,27,15,10,12.30
2016,02,27,15,11,12.30
2016,02,27,15,12,12.30
2016,02,27,15,13,12.20
2016,02,27,15,14,12.20
2016,02,27,15,15,12.20
2016,02,27,15,16,12.20
2016,02,27,15,17,12.20
2016,02,27,15,18,12.20
2016,02,27,15,19,12.20
2016,02,27,15,20,12.20
2016,02,27,15,21,12.20
2016,02,27,15,22,12.10
2016,02,27,15,23,12.10
2016,02,27,15,24,12.10
2016,02,27,15,25,12.10
2016,02,27,15,26,12.00
2016,02,27,15,27,12.00
2016,02,27,15,28,12.00
2016,02,27,15,29,12.00
2016,02,27,15,30,12.00
2016,02,27,15,31,11.90
2016,02,27,15,32,11.90
2016,02,27,15,33,11.90
2016,02,27,15,34,11.90
2016,02,27,15,35,11.90
2016,02,27,15,36,11.90
2016,02,27,15,37,11.90
2016,02,27,15,38,11.90
2016,02,27,15,39,11.90
2016,02,27,15,40,11.90
2016,02,27,15,41,11.80
2016,02,27,15,42,11.80
2016,02,27,15,43,11.80
2016,02,27,15,44,11.80
2016,02,27,15,45,11.80
2016,02,27,15,46,11.80
2016,02,27,15,47,11.80
2016,02,27,15,48,11.80
2016,02,27,15,49,11.80
2016,02,27,15,50,11.80
2016,02,27,15,51,11.80
2016,02,27,15,52,11.80
2016,02,27,15,53,11.80
2016,02,27,15,54,11.90
2016,02,27,15,55,11.90
2016,02,27,15,56,11.90
2016,02,27,15,57,12.00
2016,02,27,15,58,12.00
2016,02,27,15,59,12.00
2016,02,27,16,00,12.10
2016,02,27,16,01,12.10
2016,02,27,16,02,12.10
2016,02,27,16,03,12.10
2016,02,27,16,04,12.00
2016,02,27,16,05,12.00
2016,02,27,16,06,12.00
2016,02,27,16,07,12.00
2016,02,27,16,08,12.00
2016,02,27,16,09,12.00
2016,02,27,16,10,12.00
2016,02,27,16,11,11.90
2016,02,27,16,12,11.90
2016,02,27,16,13,11.90
2016,02,27,16,14,11.80
2016,02,27,16,15,11.80
2016,02,27,16,16,11.80
2016,02,27,16,17,11.80
2016,02,27,16,18,11.80
2016,02,27,16,19,11.70
2016,02,27,16,20,11.70
2016,02,27,16,21,11.70
2016,02,27,16,22,11.70
2016,02,27,16,23,11.60
2016,02,27,16,24,11.60
2016,02,27,16,25,11.60
2016,02,27,16,26,11.50
2016,02,27,16,27,11.50
2016,02,27,16,28,11.40
2016,02,27,16,29,11.40
2016,02,27,16,30,11.40
2016,02,27,16,31,11.40
2016,02,27,16,32,11.40
2016,02,27,16,33,11.30
2016,02,27,16,34,11.30
2016,02,27,16,35,11.30
2016,02,27,16,36,11.30
2016,02,27,16,37,11.20
2016,02,27,16,38,11.20
2016,02,27,16,39,11.20
2016,02,27,16,40,11.10
2016,02,27,16,41,11.10
2016,02,27,16,42,11.00
2016,02,27,16,43,11.00
2016,02,27,16,44,10.90
2016,02,27,16,45,10.90
2016,02,27,16,46,10.80
2016,02,27,16,47,10.80
2016,02,27,16,48,10.80
2016,02,27,16,49,10.70
2016,02,27,16,50,10.70
2016,02,27,16,51,10.70
2016,02,27,16,52,10.70
2016,02,27,16,53,10.70
2016,02,27,16,54,10.70
2016,02,27,16,55,10.70
2016,02,27,16,56,10.70
2016,02,27,16,57,10.60
2016,02,27,16,58,10.60
2016,02,27,16,59,10.60
2016,02,27,17,00,10.50
2016,02,27,17,01,10.50
2016,02,27,17,02,10.40
2016,02,27,17,03,10.40
2016,02,27,17,04,10.40
2016,02,27,17,05,10.40
2016,02,27,17,06,10.40
2016,02,27,17,07,10.40
2016,02,27,17,08,10.40
2016,02,27,17,09,10.30
2016,02,27,17,10,10.30
2016,02,27,17,11,10.30
2016,02,27,17,12,10.20
2016,02,27,17,13,10.20
2016,02,27,17,14,10.20
2016,02,27,17,15,10.20
2016,02,27,17,16,10.20
2016,02,27,17,17,10.20
2016,02,27,17,18,10.20
2016,02,27,17,19,10.10
2016,02,27,17,20,10.10
2016,02,27,17,21,10.10
2016,02,27,17,22,10.10
2016,02,27,17,23,10.00
2016,02,27,17,24,10.00
2016,02,27,17,25,9.90
2016,02,27,17,26,9.90
2016,02,27,17,27,9.90
2016,02,27,17,28,9.90
2016,02,27,17,29,9.90
2016,02,27,17,30,9.80
2016,02,27,17,31,9.80
2016,02,27,17,32,9.80
2016,02,27,17,33,9.80
2016,02,27,17,34,9.80
2016,02,27,17,35,9.80
2016,02,27,17,36,9.80
2016,02,27,17,37,9.80
2016,02,27,17,38,9.80
2016,02,27,17,39,9.80
2016,02,27,17,40,9.70
2016,02,27,17,41,9.70
2016,02,27,17,42,9.70
2016,02,27,17,43,9.70
2016,02,27,17,44,9.70
2016,02,27,17,45,9.60
2016,02,27,17,46,9.60
2016,02,27,17,47,9.60
2016,02,27,17,48,9.60
2016,02,27,17,49,9.50
2016,02,27,17,50,9.50
2016,02,27,17,51,9.50
2016,02,27,17,52,9.40
2016,02,27,17,53,9.40
2016,02,27,17,54,9.40